SPACEBEE-152 (52414 NORAD) Tracking and Keplerian Element Data

This shows tracking and keplerian element data for the satellite.

Feedback or suggestion? Click here.




ElementValue
Catalog52414
NameSPACEBEE-152
Epoch Orbit812
Epoch Day166.96257347
Epoch Year2022
RAAN251.8778
Inclination97.4498
Eccentricity0.0010233
Argument of Perigee173.7032
Mean Anonmoly186.433
Mean Motion15.13246083
Decay Rate9.828E-05
L11 52414U 22047W 22166.96257347 .00009828 00000+0 55551-3 0 9991
L22 52414 97.4498 251.8778 0010233 173.7032 186.4330 15.13246083 8128

Live tracking and technical data element details for SPACEBEE-152 (NORAD 52414). SPACEBEE-152 can be tracked NOW for your location showing map with azimuth and elevation plus other details from your city location.

Track the satellite on the map from your city or location and see movement details for azimuth, elevation, latitude, longitude, range, height, and movement on the map or in text.







IsCatalogInMostPopularTable: catalog: 52414, numindb: 1
Update: records affected: 1



GetName: 52414 SPACEBEE-152

Hit Count: updated at: Mon, 27 Jun 2022 06:17:14 GMT